Regional Weather Roundup
Issued by NWS

Home | Current Version | Previous Version | Graphics & Text | Print | Product List | Glossary On
Versions: 1 2 3 4 5 6 7 8 9 10 11 12 13 14 15 16 17 18 19 20 21 22 23 24 25 26 27 28 29 30 31 32 33 34 35 36 37 38 39 40 41 42 43 44 45 46 47 48 49 50
039
ASUS44 KLIX 200405
RWRLA
LOUISIANA WEATHER ROUNDUP
NATIONAL WEATHER SERVICE NEW ORLEANS LA
1100 PM CDT TUE AUG 19 2014

NOTE: "FAIR" INDICATES FEW OR NO CLOUDS BELOW 12,000 FEET WITH NO
      SIGNIFICANT WEATHER AND/OR OBSTRUCTIONS TO VISIBILITY.
      SKY/WX - SKY CONDITION AND SIGNIFICANT WEATHER.
      TMP - AIR TEMPERATURE.    DP   - DEWPOINT TEMPERATURE.
      RH  - RELATIVE HUMIDITY.  PRES - PRESSURE.
      HX  - HEAT INDEX.         WCI  - WIND CHILL INDEX.

*  THESE STATIONS ARE NOT NWS OR FAA STATIONS AND ARE NOT UNDER
   NWS QUALITY CONTROL.

LAZ040-048-061>063-065-066-069-200500-
SOUTHEAST LOUISIANA

CITY           SKY/WX    TMP DP  RH WIND       PRES   REMARKS
N.O. AUDUBON     N/A     82  78  89 MISG        N/A
N.O. INTL ARPT MOCLDY    82  74  76 CALM      29.99S
N.O. LAKEFRONT PTCLDY    84  74  71 W6        30.00S
N.O. DOWNTOWN* FAIR      84  72  65 CALM      30.00S
SLIDELL        PTCLDY    78  73  84 CALM      29.99R
BATON ROUGE    PTCLDY    76  70  82 SE3       29.99R
BOOTHVILLE     PTCLDY    84  76  76 S5        30.01S
BELLE CHASSE   MOCLDY    79  75  87 CALM      29.99S
BOGALUSA*      FAIR      78  73  84 CALM      30.00S
GALLIANO*      NOT AVBL
NEW ROADS*     FAIR      75  73  93 CALM      29.98S
GONZALES*      FAIR      75  75 100 CALM      29.99R
HAMMOND*       PTCLDY    77  72  83 CALM      30.01R
HOUMA*         PTCLDY    77  72  85 CALM      30.00R
PORT FOURCHON* CLEAR     86  73  66 S3        30.02S

$$

LAZ041-044-053-054-200500-
SOUTHWEST LOUISIANA

CITY           SKY/WX    TMP DP  RH WIND       PRES   REMARKS
LAKE CHARLES   CLOUDY    75  73  93 CALM      29.95S
LAFAYETTE      PTCLDY    75  73  93 NE5       29.98R
PATTERSON      PTCLDY   N/A N/A N/A MISG        N/A
SALT POINT       N/A     81  77  88 CALM      29.98R
NEW IBERIA     PTCLDY    76  73  91 E5        29.99R
CHENAULT AIRPK CLOUDY    73  73 100 CALM      29.97R

$$

LAZ027-028-200500-
CENTRAL LOUISIANA

CITY           SKY/WX    TMP DP  RH WIND       PRES   REMARKS
FORT POLK      MOCLDY    74  72  93 SE5       29.96R
ALEXANDRIA INT PTCLDY    76  71  85 S6        29.93F
ALEXANDRIA     PTCLDY    75  73  93 SE7       29.96S

$$

LAZ001-002-200500-
NORTHWEST LOUISIANA

CITY           SKY/WX    TMP DP  RH WIND       PRES   REMARKS
SHREVEPORT     CLOUDY    75  68  78 S3        29.91S
BARKSDALE AFB  CLOUDY    74  69  85 SE5       29.92S
DTN SHREVEPORT CLOUDY    76  66  71 CALM      29.91S

$$

LAZ014-016-200500-
NORTHEAST LOUISIANA

CITY           SKY/WX    TMP DP  RH WIND       PRES   REMARKS
MONROE         CLOUDY    79  71  76 S5        29.94S
TALLULAH       MOCLDY    79  72  79 S5        29.96R

$$




USA.gov is the U.S. government's official web portal to all federal, state and local government web resources and services.